1516082400.06,48110,6.81,71936.3,-12.41,-23.85,-23.75,0,*65
1516082401.29,48111,6.81,71938.0,-12.43,-23.99,-23.89,0,*68
1516082402.55,48112,6.81,71938.8,-12.41,-23.99,-23.89,0,*69
1516082403.83,48113,6.81,71938.8,-12.41,-24.11,-23.99,0,*6E
1516082405.12,48114,6.81,71940.3,-12.41,-24.11,-23.99,0,*69
1516082406.4,48115,6.81,71942.3,-12.41,-24.11,-24.11,0,*6F
1516082407.66,48116,6.81,71938.3,-12.43,-24.11,-24.11,0,*6E
1516082408.92,48117,6.81,71944.3,-12.43,-24.11,-23.99,0,*68
1516082410.16,48118,6.81,71948.5,-12.41,-24.05,-23.89,0,*61
1516082411.4,48119,6.81,71946.3,-12.39,-24.05,-23.85,0,*63
1516082412.65,48120,6.81,71952.3,-12.39,-24.05,-23.85,0,*69
1516082413.89,48121,6.81,71952.5,-12.39,-23.95,-23.79,0,*65
1516082415.13,48122,6.81,71950.3,-12.39,-23.79,-23.53,0,*6C
1516082416.37,48123,6.81,71954.5,-12.39,-23.79,-23.49,0,*66
1516082417.64,48124,6.81,71948.3,-12.35,-23.65,-23.43,0,*6A
1516082418.88,48125,6.81,71954.0,-12.39,-23.79,-23.53,0,*6B
1516082420.09,48126,6.81,71944.5,-12.39,-23.79,-23.39,0,*64
1516082421.35,48127,6.81,71944.8,-12.35,-23.75,-23.43,0,*68
1516082422.61,48128,6.81,71944.0,-12.35,-23.89,-23.49,0,*6E
1516082423.88,48129,6.81,71940.8,-12.35,-23.79,-23.49,0,*60
1516082425.14,48130,6.81,71940.0,-12.35,-23.89,-23.49,0,*67
1516082426.41,48131,6.81,71936.3,-12.35,-23.89,-23.65,0,*68
1516082427.62,48132,6.81,71936.8,-12.33,-23.79,-23.59,0,*6D
1516082428.86,48133,6.81,71938.0,-12.33,-23.89,-23.49,0,*62
1516082430.09,48134,6.81,71934.5,-12.33,-23.95,-23.59,0,*69
1516082431.35,48135,6.81,71934.8,-12.33,-23.95,-23.65,0,*67
1516082432.62,48136,6.81,71932.5,-12.33,-23.95,-23.65,0,*64
1516082433.86,48137,6.81,71930.0,-12.33,-23.95,-23.75,0,*64
1516082435.12,48138,6.81,71932.8,-12.33,-23.99,-23.65,0,*66
1516082436.38,48139,6.81,71932.3,-12.33,-23.99,-23.65,0,*67
1516082437.62,48140,6.81,71934.8,-12.33,-23.99,-23.59,0,*66
1516082438.85,48141,6.81,71932.8,-12.33,-23.89,-23.49,0,*67
1516082440.12,48142,6.81,71934.5,-12.33,-23.95,-23.49,0,*69
1516082441.38,48143,6.81,71938.5,-12.33,-23.99,-23.49,0,*64
1516082442.68,48144,6.81,71940.0,-12.31,-23.95,-23.49,0,*6D
1516082443.97,48145,6.81,71940.0,-12.31,-23.99,-23.49,0,*60
1516082445.27,48146,6.81,71940.3,-12.31,-23.95,-23.33,0,*62
1516082446.51,48147,6.81,71940.5,-12.33,-23.79,-23.33,0,*63
1516082447.75,48148,6.81,71950.5,-12.33,-23.79,-23.33,0,*6C
1516082449.02,48149,6.81,71952.0,-12.31,-23.79,-23.33,0,*6F
1516082450.29,48150,6.81,71944.0,-12.31,-23.79,-23.33,0,*67
1516082451.56,48151,6.81,71940.8,-12.31,-23.89,-23.33,0,*69
1516082452.79,48152,6.81,71932.5,-12.33,-23.89,-23.33,0,*68
1516082454.06,48153,6.81,71920.0,-12.31,-23.79,-23.33,0,*64
1516082455.33,48154,6.81,71930.8,-12.31,-23.89,-23.29,0,*67
1516082456.6,48155,6.81,71928.5,-12.31,-23.89,-23.33,0,*6D
1516082457.89,48156,6.81,71934.3,-12.31,-23.95,-23.33,0,*63
1516082459.16,48157,6.81,71928.3,-12.31,-23.89,-23.33,0,*6F
1516082460.43,48158,6.81,71932.0,-12.31,-23.79,-23.33,0,*6F
1516082461.7,48159,6.81,71934.5,-12.31,-23.89,-23.33,0,*61
1516082462.96,48160,6.81,71936.5,-12.31,-23.79,-23.29,0,*6F
1516082464.24,48161,6.81,71932.3,-12.31,-23.79,-23.19,0,*6D
1516082465.5,48162,6.81,71934.8,-12.31,-23.79,-23.29,0,*6D
1516082466.77,48163,6.81,71932.3,-12.31,-23.65,-23.13,0,*68
1516082468.04,48164,6.81,71934.0,-12.31,-23.59,-23.03,0,*61
1516082469.27,48165,6.81,71928.5,-12.29,-23.43,-22.93,0,*6A
1516082470.54,48166,6.81,71934.8,-12.27,-23.53,-22.93,0,*66
1516082471.8,48167,6.81,71942.3,-12.27,-23.69,-23.09,0,*6C
1516082473.06,48168,6.81,71942.5,-12.27,-23.69,-23.09,0,*63
1516082474.3,48169,6.81,71948.3,-12.29,-23.69,-23.09,0,*6C
1516082475.55,48170,6.81,71950.0,-12.29,-23.85,-23.13,0,*6D
1516082476.81,48171,6.81,71950.0,-12.27,-23.69,-23.09,0,*6B
1516082478.05,48172,6.81,71942.5,-12.27,-23.59,-22.97,0,*6D
1516082479.3,48173,6.81,71940.8,-12.27,-23.59,-22.97,0,*6C
1516082480.55,48174,6.81,71940.5,-12.27,-23.75,-23.09,0,*63
1516082481.82,48175,6.81,71942.0,-12.27,-23.75,-23.23,0,*6A
1516082483.07,48176,6.81,71944.0,-12.29,-23.85,-23.13,0,*6B
1516082484.33,48177,6.81,71948.5,-12.23,-23.65,-22.93,0,*67
1516082485.6,48178,6.81,71950.3,-12.23,-23.65,-23.09,0,*6A
1516082486.86,48179,6.81,71946.3,-12.23,-23.69,-23.09,0,*67
1516082488.12,48180,6.81,71950.0,-12.27,-23.69,-23.09,0,*65
1516082489.36,48181,6.81,71946.5,-12.27,-23.59,-22.97,0,*61
1516082490.63,48182,6.81,71938.5,-12.23,-23.65,-22.93,0,*6D
1516082491.89,48183,6.81,71928.3,-12.27,-23.69,-22.97,0,*60
1516082493.14,48184,6.81,71932.3,-12.27,-23.75,-23.09,0,*6C
1516082494.39,48185,6.81,71938.5,-12.27,-23.75,-22.97,0,*6B
1516082495.65,48186,6.81,71938.5,-12.27,-23.69,-22.97,0,*65
1516082496.91,48187,6.81,71942.5,-12.27,-23.69,-22.97,0,*64
1516082498.16,48188,6.81,71942.5,-12.27,-23.75,-22.97,0,*66
1516082499.44,48189,6.81,71942.8,-12.23,-23.69,-23.03,0,*62
1516082500.73,48190,6.81,71946.0,-12.23,-23.65,-23.03,0,*66
1516082502.02,48191,6.81,71946.8,-12.23,-23.69,-23.03,0,*6B
1516082503.28,48192,6.81,71930.3,-12.23,-23.53,-22.87,0,*6C
1516082504.57,48193,6.81,71934.8,-12.23,-23.65,-22.77,0,*67
1516082505.86,48194,6.81,71938.5,-12.23,-23.65,-23.03,0,*62
1516082507.12,48195,6.81,71938.0,-12.23,-23.65,-22.93,0,*6B
1516082508.38,48196,6.81,71938.5,-12.23,-23.39,-22.73,0,*6F
1516082509.64,48197,6.81,71938.8,-12.23,-23.33,-22.57,0,*62
1516082510.9,48198,6.81,71936.8,-12.23,-23.33,-22.67,0,*6E
1516082512.16,48199,6.81,71942.3,-12.23,-23.39,-22.73,0,*60
1516082513.45,48200,6.81,71942.5,-12.23,-23.49,-22.77,0,*60
1516082514.71,48201,6.81,71940.3,-12.23,-23.23,-22.57,0,*6F
1516082515.97,48202,6.81,71940.0,-12.23,-23.33,-22.57,0,*6D
1516082517.23,48203,6.81,71940.0,-12.23,-23.39,-22.73,0,*60
1516082518.48,48204,6.81,71940.3,-12.23,-23.39,-22.77,0,*63
1516082519.74,48205,6.81,71932.0,-12.23,-23.39,-22.73,0,*66
1516082521.0,48206,6.81,71930.8,-12.23,-23.23,-22.53,0,*6C
1516082522.27,48207,6.81,71928.5,-12.23,-23.19,-22.57,0,*60
1516082523.55,48208,6.81,71932.0,-12.23,-23.49,-22.73,0,*6C
1516082524.81,48209,6.81,71934.0,-12.23,-23.39,-22.77,0,*6E
1516082526.07,48210,6.81,71930.8,-12.23,-23.33,-22.67,0,*6D
1516082527.33,48211,6.81,71932.0,-12.23,-23.39,-22.73,0,*63
1516082528.56,48212,6.81,71938.3,-12.23,-23.39,-22.67,0,*65
1516082529.81,48213,6.81,71936.0,-12.23,-23.39,-22.73,0,*61
1516082531.04,48214,6.81,71928.0,-12.23,-23.39,-22.67,0,*63
1516082532.28,48215,6.81,71930.8,-12.23,-23.39,-22.67,0,*62
1516082533.51,48216,6.81,71926.0,-12.23,-23.39,-22.67,0,*61
1516082534.74,48217,6.81,71930.8,-12.23,-23.39,-22.67,0,*60
1516082536.02,48218,6.81,71928.0,-12.23,-23.49,-22.73,0,*6D
1516082537.26,48219,6.81,71938.3,-12.21,-23.33,-22.63,0,*62
1516082538.48,48220,6.81,71934.8,-12.21,-23.43,-22.63,0,*6F
1516082539.72,48221,6.81,71934.3,-12.23,-23.39,-22.67,0,*65
1516082540.96,48222,6.81,71930.8,-12.21,-23.29,-22.63,0,*61
1516082542.2,48223,6.81,71936.8,-12.21,-23.29,-22.63,0,*60
1516082543.47,48224,6.81,71928.3,-12.21,-23.19,-22.47,0,*62
1516082544.71,48225,6.81,71930.5,-12.21,-22.63,-21.87,0,*60
1516082545.94,48226,6.81,71930.5,-12.21,-22.87,-22.21,0,*66
1516082547.18,48227,6.81,71932.5,-12.19,-23.13,-22.37,0,*67
1516082548.39,48228,6.81,71930.5,-12.21,-23.13,-22.53,0,*61
1516082549.69,48229,6.81,71934.3,-12.19,-23.19,-22.47,0,*64
1516082550.96,48230,6.81,71928.8,-12.21,-23.03,-22.31,0,*6D
1516082552.23,48231,6.81,71930.3,-12.19,-22.83,-22.17,0,*6A
1516082553.47,48232,6.81,71930.0,-12.21,-22.97,-22.21,0,*62
1516082554.73,48233,6.81,71932.5,-12.19,-23.03,-22.37,0,*63
1516082556.03,48234,6.81,71928.3,-12.19,-23.03,-22.31,0,*62
1516082557.32,48235,6.81,71924.3,-12.19,-23.03,-22.31,0,*63
1516082558.61,48236,6.81,71924.5,-12.19,-23.03,-22.31,0,*60
1516082559.88,48237,6.81,71930.5,-12.19,-23.03,-22.37,0,*67
1516082561.15,48238,6.81,71932.3,-12.19,-23.13,-22.31,0,*6F
1516082562.39,48239,6.81,71926.8,-12.17,-22.77,-22.11,0,*61
1516082563.63,48240,6.81,71932.3,-12.17,-22.93,-22.17,0,*63
1516082564.89,48241,6.81,71928.5,-12.19,-22.87,-22.21,0,*6C
1516082566.11,48242,6.81,71928.0,-12.13,-22.83,-22.11,0,*62
1516082567.32,48243,6.81,71926.8,-12.17,-22.63,-22.03,0,*6A
1516082568.56,48244,6.81,71930.3,-12.17,-22.83,-22.17,0,*66
1516082569.8,48245,6.81,71930.5,-12.17,-22.83,-22.17,0,*67
1516082571.02,48246,6.81,71930.0,-12.17,-22.93,-22.27,0,*66
1516082572.29,48247,6.81,71922.3,-12.17,-22.47,-21.87,0,*67
1516082573.52,48248,6.81,71924.8,-12.13,-22.73,-22.07,0,*60
1516082574.77,48249,6.81,71924.0,-12.13,-22.77,-22.11,0,*62
1516082575.98,48250,6.81,71920.3,-12.13,-22.57,-21.93,0,*61
1516082577.23,48251,6.81,71930.3,-12.13,-22.53,-21.83,0,*65
1516082578.44,48252,6.81,71930.5,-12.13,-22.87,-22.11,0,*67
1516082579.65,48253,6.81,71934.0,-12.17,-22.93,-22.11,0,*67
1516082580.89,48254,6.81,71932.3,-12.13,-22.87,-22.21,0,*62
1516082582.16,48255,6.81,71934.0,-12.17,-22.77,-22.17,0,*6D
1516082583.43,48256,6.81,71930.0,-12.11,-22.53,-21.97,0,*65
1516082584.69,48257,6.81,71928.5,-12.11,-22.73,-22.11,0,*6B
1516082585.93,48258,6.81,71930.8,-12.11,-22.87,-22.11,0,*6F
1516082587.22,48259,6.81,71926.5,-12.11,-22.77,-22.21,0,*62
1516082588.48,48260,6.81,71928.0,-12.11,-22.87,-22.21,0,*67
1516082589.77,48261,6.81,71932.3,-12.11,-22.77,-22.21,0,*69
1516082591.06,48262,6.81,71930.3,-12.11,-22.77,-22.21,0,*6A
1516082592.32,48263,6.81,71926.0,-12.11,-22.63,-21.97,0,*60
1516082593.53,48264,6.81,71920.8,-12.13,-22.63,-22.11,0,*68
1516082594.77,48265,6.81,71918.8,-12.13,-22.77,-22.11,0,*6C
1516082595.98,48266,6.81,71920.0,-12.13,-22.63,-22.11,0,*6A
1516082597.22,48267,6.81,71922.3,-12.17,-22.67,-22.17,0,*6D
1516082598.48,48268,6.81,71926.3,-12.13,-22.73,-22.21,0,*66
1516082599.72,48269,6.81,71922.5,-12.13,-22.73,-22.11,0,*64
1516082600.98,48270,6.81,71924.0,-12.11,-22.73,-22.11,0,*6E
1516082602.18,48271,6.81,71920.0,-12.09,-22.63,-22.11,0,*67
1516082603.39,48272,6.81,71918.3,-12.09,-22.63,-22.11,0,*64
1516082604.59,48273,6.81,71924.5,-12.09,-22.63,-22.11,0,*65
1516082605.84,48274,6.81,71924.8,-12.11,-22.57,-22.07,0,*6B
1516082607.11,48275,6.81,71926.3,-12.11,-22.57,-21.97,0,*60
1516082608.37,48276,6.81,71912.8,-12.11,-22.53,-21.97,0,*67
1516082609.58,48277,6.81,71922.8,-12.09,-22.27,-21.77,0,*62
1516082610.82,48278,6.81,71922.0,-12.09,-22.41,-21.83,0,*66
1516082612.07,48279,6.81,71918.3,-12.11,-22.07,-21.57,0,*65
1516082613.35,48280,6.81,71916.3,-12.11,-21.97,-21.57,0,*69
1516082614.6,48281,6.81,71926.5,-12.11,-22.53,-22.07,0,*65
1516082615.81,48282,6.81,71926.5,-12.09,-22.53,-22.07,0,*6F
1516082617.02,48283,6.81,71924.8,-12.09,-22.57,-22.07,0,*6A
1516082618.26,48284,6.81,71924.3,-12.09,-22.53,-21.97,0,*63
1516082619.47,48285,6.81,71924.3,-12.09,-22.53,-22.07,0,*68
1516082620.69,48286,6.81,71920.8,-12.09,-22.57,-22.07,0,*6F
1516082621.9,48287,6.81,71924.8,-12.09,-22.53,-22.07,0,*6A
1516082623.14,48288,6.81,71930.3,-12.09,-22.53,-21.97,0,*6F
1516082624.38,48289,6.81,71932.8,-12.11,-22.53,-22.07,0,*6D
1516082625.6,48290,6.81,71928.5,-12.09,-22.53,-22.11,0,*6B
1516082626.81,48291,6.81,71932.0,-12.09,-22.53,-22.07,0,*6D
1516082628.05,48292,6.81,71926.5,-12.09,-22.11,-21.67,0,*6D
1516082629.28,48293,6.81,71924.5,-12.09,-22.11,-21.67,0,*6C
1516082630.55,48294,6.81,71926.3,-12.07,-22.21,-21.93,0,*6D
1516082631.79,48295,6.81,71930.3,-12.07,-22.37,-22.07,0,*65
1516082633.04,48296,6.81,71928.5,-12.07,-22.53,-22.07,0,*64
1516082634.3,48297,6.81,71930.0,-12.07,-22.47,-22.03,0,*64
1516082635.54,48298,6.81,71930.3,-12.07,-22.37,-22.07,0,*68
1516082636.79,48299,6.81,71928.3,-12.07,-22.37,-22.07,0,*69
1516082637.99,48300,6.81,71930.0,-12.09,-22.41,-22.11,0,*60
1516082639.26,48301,6.81,71928.5,-12.07,-22.47,-22.07,0,*6E
1516082640.5,48302,6.81,71930.8,-12.07,-22.53,-22.07,0,*68
1516082641.75,48303,6.81,71926.5,-12.07,-22.53,-22.07,0,*69
1516082642.97,48304,6.81,71924.3,-12.05,-22.53,-22.07,0,*6C
1516082644.24,48305,6.81,71928.3,-12.07,-22.53,-22.17,0,*6E
1516082645.54,48306,6.81,71926.3,-12.07,-22.47,-22.17,0,*68
1516082646.81,48307,6.81,71930.0,-12.07,-22.37,-22.17,0,*6E
1516082648.03,48308,6.81,71932.5,-12.09,-22.53,-22.11,0,*6B
1516082649.24,48309,6.81,71932.3,-12.09,-22.37,-22.07,0,*6F
1516082650.51,48310,6.81,71928.0,-12.07,-22.17,-22.03,0,*6F
1516082651.75,48311,6.81,71930.5,-12.07,-22.37,-22.07,0,*68
1516082653.01,48312,6.81,71934.3,-12.07,-22.47,-22.07,0,*6C
1516082654.28,48313,6.81,71932.0,-12.07,-22.21,-22.07,0,*6D
1516082655.55,48314,6.81,71936.5,-12.07,-22.21,-22.03,0,*6E
1516082656.81,48315,6.81,71936.5,-12.07,-22.17,-22.07,0,*6E
1516082658.08,48316,6.81,71930.8,-12.07,-22.21,-22.07,0,*68
1516082659.34,48317,6.81,71932.8,-12.07,-22.31,-22.07,0,*68
1516082660.58,48318,6.81,71932.5,-12.05,-22.31,-22.07,0,*65
1516082661.83,48319,6.81,71930.0,-12.05,-22.21,-22.07,0,*65
1516082663.09,48320,6.81,71928.3,-12.07,-22.17,-22.07,0,*68
1516082664.36,48321,6.81,71930.8,-12.07,-22.17,-22.07,0,*69
1516082665.63,48322,6.81,71934.5,-12.07,-22.21,-22.07,0,*6F
1516082666.9,48323,6.81,71930.8,-12.07,-22.17,-22.07,0,*6B
1516082668.14,48324,6.81,71932.0,-12.05,-22.21,-22.07,0,*6B
1516082669.41,48325,6.81,71932.0,-12.07,-22.17,-22.07,0,*6D
1516082670.68,48326,6.81,71932.5,-12.07,-22.17,-22.07,0,*6E
1516082671.95,48327,6.81,71930.0,-12.07,-22.17,-22.03,0,*6B
1516082673.21,48328,6.81,71930.3,-12.07,-21.57,-21.43,0,*64
1516082674.48,48329,6.81,71932.5,-12.07,-21.87,-21.77,0,*6F
1516082675.77,48330,6.81,71928.3,-12.07,-21.57,-21.53,0,*6C
1516082677.03,48331,6.81,71930.8,-12.05,-21.57,-21.57,0,*6B
1516082678.27,48332,6.81,71932.5,-12.07,-21.93,-21.93,0,*6A
1516082679.51,48333,6.81,71932.5,-12.07,-22.03,-22.03,0,*6B
1516082680.75,48334,6.81,71930.8,-12.01,-21.73,-21.73,0,*6A
1516082681.99,48335,6.81,71928.0,-12.05,-21.93,-21.87,0,*6A
1516082683.23,48336,6.81,71932.0,-12.05,-21.57,-21.43,0,*69
1516082684.47,48337,6.81,71928.8,-12.05,-21.63,-21.57,0,*6A
1516082685.71,48338,6.81,71930.8,-12.05,-21.87,-21.77,0,*6D
1516082686.96,48339,6.81,71934.0,-12.05,-21.87,-21.93,0,*66
1516082688.17,48340,6.81,71932.3,-12.05,-22.03,-22.03,0,*6D
1516082689.44,48341,6.81,71932.8,-12.01,-21.97,-22.03,0,*66
1516082690.73,48342,6.81,71932.8,-12.01,-21.57,-21.53,0,*6F
1516082692.0,48343,6.81,71932.3,-11.99,-21.83,-21.87,0,*6C
1516082693.29,48344,6.81,71930.3,-12.01,-21.97,-21.97,0,*6D
1516082694.55,48345,6.81,71928.3,-12.01,-21.67,-21.73,0,*69
1516082695.8,48346,6.81,71924.5,-12.01,-21.39,-21.39,0,*6F
1516082697.07,48347,6.81,71924.5,-11.99,-21.53,-21.57,0,*68
1516082698.34,48348,6.81,71926.5,-11.99,-21.67,-21.83,0,*69
1516082699.63,48349,6.81,71926.8,-12.01,-21.83,-21.87,0,*64
1516082700.9,48350,6.81,71926.3,-11.99,-21.87,-21.97,0,*6B
1516082702.17,48351,6.81,71924.8,-11.99,-21.83,-21.97,0,*6E
1516082703.43,48352,6.81,71926.0,-11.99,-21.83,-21.97,0,*6D
1516082704.68,48353,6.81,71926.3,-11.99,-21.87,-22.03,0,*66
1516082705.92,48354,6.81,71930.0,-11.99,-21.83,-22.03,0,*65
1516082707.14,48355,6.81,71928.8,-11.99,-21.77,-21.93,0,*65
1516082708.38,48356,6.81,71924.8,-11.99,-21.77,-21.97,0,*62
1516082709.65,48357,6.81,71922.3,-11.99,-21.67,-21.87,0,*63
1516082710.92,48358,6.81,71928.0,-11.99,-21.67,-21.83,0,*68
1516082712.16,48359,6.81,71928.0,-11.99,-21.77,-21.97,0,*6D
1516082713.41,48360,6.81,71926.8,-11.99,-21.87,-22.03,0,*66
1516082714.65,48361,6.81,71932.0,-11.99,-21.77,-21.97,0,*66
1516082715.87,48362,6.81,71928.0,-11.99,-21.77,-21.93,0,*61
1516082717.11,48363,6.81,71930.8,-11.99,-21.33,-21.63,0,*6F
1516082718.35,48364,6.81,71926.3,-11.99,-21.33,-21.47,0,*6E
1516082719.59,48365,6.81,71926.3,-11.99,-21.27,-21.47,0,*6A
1516082720.86,48366,6.81,71928.8,-11.99,-21.67,-21.83,0,*65
1516082722.11,48367,6.81,71930.0,-11.99,-21.67,-21.93,0,*65
1516082723.36,48368,6.81,71928.8,-11.99,-21.47,-21.67,0,*63
1516082724.65,48369,6.81,71928.3,-11.97,-21.67,-21.97,0,*61
1516082725.92,48370,6.81,71930.5,-11.97,-21.77,-21.97,0,*68
1516082727.16,48371,6.81,71934.3,-11.97,-21.77,-22.07,0,*63
1516082728.43,48372,6.81,71926.3,-11.97,-21.63,-21.83,0,*6A
1516082729.72,48373,6.81,71924.0,-11.97,-21.53,-21.97,0,*6D
1516082731.02,48374,6.81,71928.5,-11.97,-21.67,-21.97,0,*6D
1516082732.28,48375,6.81,71930.5,-11.99,-21.67,-21.97,0,*62
1516082733.55,48376,6.81,71932.3,-11.99,-21.67,-21.97,0,*61
1516082734.82,48377,6.81,71932.5,-11.97,-21.77,-21.97,0,*6F
1516082736.09,48378,6.81,71932.3,-11.97,-21.43,-21.67,0,*68
1516082737.33,48379,6.81,71930.5,-11.97,-21.43,-21.77,0,*68
1516082738.57,48380,6.81,71928.0,-11.97,-21.13,-21.47,0,*68
1516082739.86,48381,6.81,71930.5,-11.97,-21.33,-21.67,0,*69
1516082741.11,48382,6.81,71930.3,-11.97,-21.47,-21.93,0,*62
1516082742.35,48383,6.81,71922.0,-11.95,-21.27,-21.77,0,*6D
1516082743.58,48384,6.81,71930.0,-11.91,-21.47,-21.93,0,*62
1516082744.82,48385,6.81,71928.8,-11.95,-21.57,-22.03,0,*6C
1516082746.04,48386,6.81,71942.0,-11.95,-21.47,-21.77,0,*6E
1516082747.29,48387,6.81,71924.0,-11.91,-20.99,-21.47,0,*6A
1516082748.5,48388,6.81,71920.3,-11.91,-21.39,-21.77,0,*6D
1516082749.72,48389,6.81,71922.5,-11.91,-21.43,-21.93,0,*6B
1516082750.96,48390,6.81,71928.8,-11.91,-21.77,-22.21,0,*6E
1516082752.18,48391,6.81,71928.5,-11.91,-21.47,-22.03,0,*6C
1516082753.4,48392,6.81,71930.3,-11.91,-21.93,-22.37,0,*61
1516082754.62,48393,6.81,71924.0,-11.91,-21.47,-21.93,0,*64
1516082755.87,48394,6.81,71930.0,-11.91,-21.77,-22.21,0,*6A
1516082757.08,48395,6.81,71928.5,-11.95,-21.63,-22.07,0,*6E
1516082758.33,48396,6.81,71930.3,-11.95,-21.77,-22.21,0,*6C
1516082759.57,48397,6.81,71930.8,-11.95,-21.87,-22.37,0,*65
1516082760.82,48398,6.81,71934.8,-11.95,-21.73,-22.17,0,*63
1516082762.04,48399,6.81,71928.5,-11.95,-21.63,-22.07,0,*62
1516082763.26,48400,6.81,71914.8,-11.95,-21.39,-21.93,0,*64
1516082764.51,48401,6.81,71922.5,-11.95,-21.73,-22.31,0,*60
1516082765.75,48402,6.81,71912.5,-11.95,-21.63,-22.17,0,*66
1516082767.0,48403,6.81,71908.8,-11.95,-21.73,-22.17,0,*66
1516082768.22,48404,6.81,71900.0,-11.91,-21.47,-22.03,0,*67
1516082769.44,48405,6.81,71908.0,-11.95,-21.47,-22.07,0,*66
1516082770.69,48406,6.81,71912.3,-11.91,-21.63,-22.17,0,*66
1516082771.91,48407,6.81,71924.8,-11.95,-21.77,-22.37,0,*64
1516082773.14,48408,6.81,71926.3,-11.95,-22.07,-22.73,0,*6F
1516082774.36,48409,6.81,71928.3,-11.91,-21.93,-22.57,0,*62
1516082775.61,48410,6.81,71918.0,-11.95,-21.73,-22.31,0,*60
1516082776.85,48411,6.81,71922.3,-11.91,-21.63,-22.21,0,*65
1516082778.1,48412,6.81,71920.8,-11.91,-21.63,-22.17,0,*63
1516082779.35,48413,6.81,71930.3,-11.91,-21.73,-22.31,0,*67
1516082780.59,48414,6.81,71926.5,-11.95,-21.63,-22.17,0,*61
1516082781.81,48415,6.81,71920.0,-11.95,-21.43,-22.07,0,*63
1516082783.08,48416,6.81,71916.8,-11.95,-21.23,-21.87,0,*6D
1516082784.3,48417,6.81,71916.5,-11.95,-21.39,-22.03,0,*68
1516082785.52,48418,6.81,71918.8,-11.95,-21.43,-22.07,0,*6E
1516082786.76,48419,6.81,71920.5,-11.95,-21.43,-22.17,0,*6E
1516082788.01,48420,6.81,71916.5,-11.95,-21.57,-22.03,0,*64
1516082789.28,48421,6.81,71912.8,-11.91,-21.23,-21.87,0,*6D
1516082790.52,48422,6.81,71910.8,-11.95,-21.63,-22.31,0,*60
1516082791.74,48423,6.81,71918.8,-11.95,-21.73,-22.37,0,*66
1516082793.02,48424,6.81,71912.5,-11.91,-21.57,-22.17,0,*61
1516082794.23,48425,6.81,71912.0,-11.91,-21.73,-22.37,0,*64
1516082795.45,48426,6.81,71906.0,-11.91,-21.73,-22.37,0,*67
1516082796.67,48427,6.81,71900.8,-11.91,-21.77,-22.57,0,*64
1516082797.92,48428,6.81,71920.5,-11.95,-21.63,-22.31,0,*6A
1516082799.16,48429,6.81,71914.5,-11.91,-21.73,-22.31,0,*6E
1516082800.43,48430,6.81,71904.0,-11.91,-21.57,-22.21,0,*61
1516082801.68,48431,6.81,71890.8,-11.95,-21.63,-22.31,0,*62
1516082802.92,48432,6.81,71904.3,-11.95,-21.87,-22.67,0,*68
1516082804.14,48433,6.81,71896.0,-11.91,-21.77,-22.41,0,*66
1516082805.36,48434,6.81,71900.5,-11.95,-21.77,-22.67,0,*61
1516082806.57,48435,6.81,71906.5,-11.95,-22.03,-22.83,0,*6A
1516082807.82,48436,6.81,71914.0,-11.95,-21.87,-22.67,0,*6C
1516082809.04,48437,6.81,71912.0,-11.91,-21.93,-22.83,0,*66
1516082810.31,48438,6.81,71916.8,-11.95,-21.57,-22.31,0,*6C
1516082811.54,48439,6.81,71904.8,-11.95,-21.77,-22.53,0,*6B
1516082812.78,48440,6.81,71914.8,-11.95,-21.93,-22.73,0,*6D
1516082813.99,48441,6.81,71908.5,-11.95,-21.63,-22.37,0,*63
1516082815.21,48442,6.81,71910.8,-11.91,-21.63,-22.41,0,*65
1516082816.43,48443,6.81,71904.5,-11.95,-21.77,-22.57,0,*62
1516082817.65,48444,6.81,71914.0,-11.95,-21.93,-22.83,0,*66
1516082818.86,48445,6.81,71918.3,-11.95,-22.03,-22.83,0,*6D
1516082820.08,48446,6.81,71900.0,-11.95,-21.63,-22.57,0,*62
1516082821.32,48447,6.81,71900.5,-11.97,-21.63,-22.37,0,*67
1516082822.62,48448,6.81,71908.3,-11.97,-21.67,-22.47,0,*6B
1516082823.87,48449,6.81,71892.8,-11.97,-21.93,-22.87,0,*6D
1516082825.13,48450,6.81,71902.3,-11.97,-21.97,-22.87,0,*61
1516082826.38,48451,6.81,71896.0,-11.97,-22.11,-22.93,0,*68
1516082827.63,48452,6.81,71896.5,-11.97,-21.93,-22.93,0,*62
1516082828.91,48453,6.81,71898.0,-11.97,-21.83,-22.73,0,*6C
1516082830.15,48454,6.81,71906.0,-11.97,-22.07,-22.87,0,*6F
1516082831.39,48455,6.81,71906.3,-11.99,-22.27,-23.19,0,*64
1516082832.64,48456,6.81,71900.8,-11.99,-22.11,-23.03,0,*69
1516082833.88,48457,6.81,71906.3,-11.97,-22.11,-22.93,0,*6E
1516082835.15,48458,6.81,71910.8,-11.99,-22.21,-23.03,0,*64
1516082836.39,48459,6.81,71906.0,-11.99,-22.27,-23.19,0,*68
1516082837.63,48460,6.81,71906.8,-11.99,-22.31,-23.13,0,*6F
1516082838.88,48461,6.81,71902.5,-11.99,-21.97,-22.93,0,*68
1516082840.12,48462,6.81,71902.5,-11.99,-21.97,-22.93,0,*6B
1516082841.4,48463,6.81,71906.8,-12.01,-22.17,-23.09,0,*61
1516082842.62,48464,6.81,71906.8,-11.99,-22.27,-23.09,0,*67
1516082843.89,48465,6.81,71908.8,-12.01,-22.17,-23.09,0,*67
1516082845.11,48466,6.81,71904.3,-11.99,-22.11,-23.09,0,*60
1516082846.33,48467,6.81,71910.8,-11.99,-22.11,-23.09,0,*61
1516082847.6,48468,6.81,71914.0,-12.01,-22.27,-23.23,0,*61
1516082848.9,48469,6.81,71912.3,-12.01,-22.31,-23.23,0,*67
1516082850.17,48470,6.81,71926.3,-12.01,-22.27,-23.23,0,*68
1516082851.45,48471,6.81,71928.3,-12.01,-22.27,-23.23,0,*69
1516082852.72,48472,6.81,71922.8,-12.01,-22.17,-23.13,0,*6A
1516082853.96,48473,6.81,71922.0,-12.05,-22.03,-23.03,0,*6B
1516082855.17,48474,6.81,71914.8,-12.05,-21.77,-22.67,0,*6F
1516082856.39,48475,6.81,71910.5,-12.05,-21.39,-22.37,0,*61
1516082857.63,48476,6.81,71910.0,-12.07,-21.73,-22.67,0,*6B
1516082858.84,48477,6.81,71908.8,-12.05,-21.73,-22.67,0,*68
1516082860.06,48478,6.81,71918.8,-12.05,-21.63,-22.57,0,*65
1516082861.33,48479,6.81,71918.0,-12.01,-21.87,-22.83,0,*63
1516082862.63,48480,6.81,71906.0,-12.01,-21.23,-22.17,0,*66
1516082863.92,48481,6.81,71908.5,-12.01,-21.33,-22.31,0,*62
1516082865.17,48482,6.81,71906.0,-12.01,-21.47,-22.27,0,*65
1516082866.44,48483,6.81,71918.0,-12.01,-21.57,-22.63,0,*65
1516082867.68,48484,6.81,71910.8,-11.99,-21.67,-22.63,0,*63
1516082868.98,48485,6.81,71914.0,-12.01,-21.23,-22.17,0,*63
1516082870.25,48486,6.81,71912.8,-11.99,-21.83,-22.77,0,*6E
1516082871.47,48487,6.81,71916.5,-11.99,-22.03,-22.97,0,*6A
1516082872.71,48488,6.81,71914.0,-11.99,-21.97,-22.97,0,*6B
1516082873.93,48489,6.81,71914.0,-11.99,-22.11,-23.09,0,*61
1516082875.23,48490,6.81,71918.5,-12.01,-22.17,-23.23,0,*65
1516082876.51,48491,6.81,71914.8,-12.01,-22.17,-23.13,0,*67
1516082877.75,48492,6.81,71914.3,-12.01,-22.03,-22.97,0,*6C
1516082878.99,48493,6.81,71918.8,-12.01,-22.03,-23.09,0,*6B
1516082880.27,48494,6.81,71916.5,-12.01,-21.87,-22.93,0,*61
1516082881.53,48495,6.81,71918.5,-12.01,-21.83,-22.87,0,*61
1516082882.75,48496,6.81,71912.5,-12.05,-22.03,-22.97,0,*6C
1516082883.99,48497,6.81,71914.5,-12.05,-22.03,-23.03,0,*61
1516082885.23,48498,6.81,71916.0,-12.05,-22.03,-23.03,0,*6E
1516082886.47,48499,6.81,71916.8,-12.05,-22.03,-23.03,0,*6F
1516082887.68,48500,6.81,71918.8,-12.05,-22.03,-23.13,0,*6F
1516082888.92,48501,6.81,71910.3,-12.05,-22.21,-23.13,0,*6E
1516082890.19,48502,6.81,71918.8,-12.05,-22.17,-23.19,0,*62
1516082891.46,48503,6.81,71920.3,-12.05,-22.17,-23.29,0,*60
1516082892.75,48504,6.81,71922.3,-12.07,-22.31,-23.33,0,*6A
1516082894.02,48505,6.81,71924.5,-12.05,-22.21,-23.19,0,*60
1516082895.28,48506,6.81,71926.3,-12.07,-21.77,-22.73,0,*6C
1516082896.53,48507,6.81,71918.5,-12.07,-21.93,-22.97,0,*6D
1516082897.77,48508,6.81,71918.3,-12.07,-21.93,-22.97,0,*62
1516082899.06,48509,6.81,71914.8,-12.07,-22.17,-23.29,0,*68